SCP
5 7 8 8 8 10 11 11 10 9 8 6 7 7 7 5 4 4 3 3 3 3 3 3 2 2 2 1 1 0 0 0 0 0 0 0 0 0 0 0 0 0 0
10 10 11 11 12 13 12 10 9 9 8 7 7 7 6 5 4 3 3 3 3 3 3 2 2 2 1 1 1 0 0 0 0 0 0 0 0 0 0 0 0 0 0
16 17 17 16 15 14 11 9 9 9 9 8 7 6 5 4 4 3 2 2 2 2 2 2 2 1 1 0 0 0 0 0 0 0 0 0 0 0 0 0 0 0 0
16 19 21 19 15 12 10 10 10 11 10 9 8 7 6 5 4 3 2 1 1 2 2 1 1 0 0 0 0 0 0 0 0 0 0 0 0 0 0 0 0 0 0
14 18 21 18 14 11 10 11 12 12 11 11 10 8 7 6 4 2 1 1 1 1 1 1 0 0 0 0 0 0 0 0 0 0 0 0 0 0 0 0 0 0 0
13 16 17 15 12 11 10 12 13 12 11 11 11 8 6 5 3 1 0 0 0 0 0 0 0 0 0 0 0 0 0 0 0 0 0 0 0 0 0 0 0 0 0
10 11 12 11 10 9 9 9 9 8 9 10 8 5 3 2 1 0 0 0 0 0 0 0 0 0 0 0 0 0 0 0 0 0 0 0 0 0 0 0 0 0 0
8 7 7 7 7 6 6 5 4 4 5 6 4 2 1 0 0 0 0 0 0 0 0 0 0 0 0 0 0 0 0 0 0 0 0 0 0 0 0 0 0 0 0
5 5 4 4 4 4 3 3 2 2 2 2 2 1 0 0 0 0 0 0 0 0 0 0 0 0 0 0 0 0 0 0 0 0 0 0 0 0 0 0 0 0 0
3 2 2 2 2 2 2 2 1 1 1 1 1 0 0 0 0 0 0 0 0 0 0 0 0 0 0 0 0 0 0 0 0 0 0 0 0 0 0 0 0 0 0
1 1 1 1 1 1 1 1 1 0 0 0 0 0 0 0 0 0 0 0 0 0 0 0 0 0 0 0 0 0 0 0 0 0 0 0 0 0 0 0 0 0 0
0 0 0 0 0 0 0 0 0 0 0 0 0 0 0 0 0 0 0 0 0 0 0 0 0 0 0 0 0 0 0 0 0 0 0 0 0 0 0 0 0 0 0
0 0 0 0 0 0 0 0 0 0 0 0 0 0 0 0 0 0 0 0 0 0 0 0 0 0 0 0 0 0 0 0 0 0 0 0 0 0 0 0 0 0 0
0 0 0 0 0 0 0 0 0 0 0 0 0 0 0 0 0 0 0 0 0 0 0 0 0 0 0 0 0 0 0 0 0 0 0 0 0 0 0 0 0 0 0
0 0 0 0 0 0 0 0 0 0 0 0 0 0 0 0 0 0 0 0 0 0 0 0 0 0 0 0 0 0 0 0 0 0 0 0 0 0 0 0 0 0 0
0 0 0 0 0 0 0 0 0 0 0 0 0 0 0 0 0 0 0 0 0 0 0 0 0 0 0 0 0 0 0 0 0 0 0 0 0 0 0 0 0 0 0
0 0 0 0 0 0 0 0 0 0 0 0 0 0 0 0 0 0 0 0 0 0 0 0 0 0 0 0 0 0 0 0 0 0 0 0 0 0 0 0 0 0 0
0 0 0 0 0 0 0 0 0 0 0 0 0 0 0 0 0 0 0 0 0 0 0 0 0 0 0 0 0 0 0 0 0 0 0 0 0 0 0 0 0 0 0
0 0 0 0 0 0 0 0 0 0 0 0 0 0 0 0 0 0 0 0 0 0 0 0 0 0 0 0 0 0 0 0 0 0 0 0 0 0 0 0 0 0 0
0 0 0 0 0 0 0 0 0 0 0 0 0 0 0 0 0 0 0 0 0 0 0 0 0 0 0 0 0 0 0 0 0 0 0 0 0 0 0 0 0 0 0
0 0 0 0 0 0 0 0 0 0 0 0 0 0 0 0 0 0 0 0 0 0 0 0 0 0 0 0 0 0 0 0 0 0 0 0 0 0 0 0 0 0 0
0 0 0 0 0 0 0 0 0 0 0 0 0 0 0 0 0 0 0 0 0 0 0 0 0 0 0 0 0 0 0 0 0 0 0 0 0 0 0 0 0 0 0
0 0 0 0 0 0 0 0 0 0 0 0 0 0 0 0 0 0 0 0 0 0 0 0 0 0 0 0 0 0 0 0 0 0 0 0 0 0 0 0 0 0 0
0 0 0 0 0 0 0 0 0 0 0 0 0 0 0 0 0 0 0 0 0 0 0 0 0 0 0 0 0 0 0 0 0 0 0 0 0 0 0 0 0 0 0
0 0 0 0 0 0 0 0 0 0 0 0 0 0 0 0 0 0 0 0 0 0 0 0 0 0 0 0 0 0 0 0 0 0 0 0 0 0 0 0 0 0 0
0 0 0 0 0 0 0 0 0 0 0 0 0 0 0 0 0 0 0 0 0 0 0 0 0 0 0 0 0 0 0 0 0 0 0 0 0 0 0 0 0 0 0
Wind_Speed
5 5 5 6 6 7 8 10 11 11 9 8 7 6 5 4 4 4 4 5 5 5 5 4 4 4 3 3 3 3 4 3 2 2 2 2 2 2 1 1 1 1 0
6 6 7 6 7 7 7 8 9 9 9 6 5 4 5 5 4 4 6 6 6 5 5 5 4 4 4 4 4 3 3 2 3 2 1 2 3 3 3 2 2 1 1
8 7 7 6 7 7 7 7 8 7 7 7 6 7 6 4 4 5 5 6 7 7 7 6 6 5 5 4 4 3 3 2 2 2 2 2 2 2 3 3 3 3 3
8 7 7 6 6 6 6 6 7 7 6 7 8 9 6 5 4 4 5 7 8 8 8 7 7 6 5 6 5 4 3 3 2 2 3 2 2 1 2 3 3 4 4
9 8 8 7 7 7 7 6 7 8 7 7 7 8 7 6 7 7 9 8 7 8 8 8 7 7 6 6 6 6 6 4 3 2 2 3 3 3 1 2 4 4 3
11 11 10 11 11 10 9 8 9 9 7 7 8 9 10 10 10 9 8 7 6 7 9 9 8 7 6 6 6 6 7 5 5 4 3 2 2 1 1 0 2 3 3
11 11 12 12 12 12 11 11 11 11 10 10 10 10 11 11 11 9 9 8 6 6 7 8 7 6 6 6 6 7 6 6 6 4 3 3 2 1 1 1 1 2 3
11 12 12 12 12 13 13 13 14 13 13 13 12 12 11 9 9 9 8 8 6 7 7 7 7 7 7 7 6 6 5 5 5 6 4 3 2 2 2 1 1 2 3
11 12 12 13 13 14 14 13 14 15 14 14 13 13 12 11 11 10 9 7 7 7 8 8 8 8 8 7 6 6 5 5 5 5 5 3 2 2 2 1 1 1 1
11 11 11 12 13 13 13 14 15 15 14 13 12 12 12 11 10 10 10 9 8 7 8 8 8 8 8 8 7 6 6 7 5 4 5 4 2 3 2 2 1 1 2
10 10 10 11 12 13 13 14 14 14 14 13 13 13 12 11 10 10 10 8 7 7 7 7 8 8 8 8 7 7 7 6 6 5 5 4 3 3 3 2 1 1 1
10 10 10 11 12 12 12 13 13 13 12 12 12 12 11 10 10 10 9 8 7 7 7 7 8 9 9 8 8 7 7 6 6 5 5 5 4 4 3 2 2 2 2
11 10 10 11 11 12 12 12 12 12 11 11 12 11 10 10 10 9 8 8 8 7 7 8 9 8 7 7 6 6 6 5 5 5 4 5 4 4 3 3 3 3 3
11 11 11 11 11 11 11 11 11 11 11 11 11 10 9 9 8 8 8 7 7 7 7 7 7 6 6 6 6 5 5 5 5 5 5 5 4 4 4 3 3 3 4
11 11 11 10 11 11 10 10 10 10 10 10 10 8 8 8 8 8 7 7 7 7 6 6 5 5 4 4 4 5 5 5 6 6 6 6 7 6 3 2 3 3 3
12 11 11 11 10 10 10 10 9 8 8 9 8 7 7 7 7 6 6 6 6 5 5 5 4 3 3 4 6 6 4 5 6 6 6 7 6 6 6 8 9 8 6
11 11 10 9 9 8 8 8 7 7 8 8 7 6 6 6 5 6 5 5 4 4 4 3 3 2 0 2 5 9 5 5 5 5 5 6 6 5 4 7 11 11 13
10 9 8 8 7 6 6 7 7 7 7 7 6 5 5 5 5 5 4 3 2 2 1 1 1 1 2 2 4 8 6 5 6 6 6 5 6 5 5 5 7 8 8
8 7 7 6 6 6 6 7 7 6 7 6 5 4 4 4 4 4 2 2 1 1 1 0 1 1 3 4 4 5 4 5 6 7 7 7 6 9 9 6 8 9 9
6 6 6 6 6 5 6 7 6 6 5 4 4 4 4 4 3 2 1 1 1 1 1 1 1 1 2 4 5 6 3 4 6 6 7 9 9 12 12 7 6 8 9
6 6 6 5 5 5 6 7 6 4 3 3 3 3 2 2 1 1 1 1 2 2 3 3 3 2 2 3 5 8 3 4 5 6 6 7 12 15 15 10 6 8 9
6 6 5 5 4 5 6 6 4 2 3 3 3 2 1 1 2 2 2 3 3 3 3 3 4 3 3 4 6 10 9 8 4 5 6 8 15 16 14 9 8 11 8
5 5 6 5 4 4 5 5 2 2 3 2 1 0 1 1 1 2 2 3 3 3 3 3 3 3 3 4 8 10 11 12 6 6 12 14 15 13 9 9 12 8 4
5 5 6 5 3 3 4 3 2 2 2 1 1 1 0 0 1 1 2 2 2 2 2 2 3 3 4 4 5 6 7 9 8 7 11 13 11 8 8 7 6 4 3
4 4 5 5 4 3 2 1 1 2 1 0 1 1 1 1 1 1 1 2 2 2 2 0 1 2 4 6 9 7 6 6 7 7 5 4 5 6 6 6 5 5 4
4 5 4 4 3 3 2 1 2 2 1 1 1 1 1 1 2 2 1 2 1 2 2 2 2 3 5 10 12 12 12 13 11 5 4 5 5 5 5 6 5 4 4
Wind_Direction
166 134 136 135 139 153 157 163 173 171 166 161 153 145 133 116 99 92 99 102 103 109 113 114 106 103 105 109 108 100 80 49 26 56 19 3 20 49 53 72 81 64 134
121 107 105 116 144 151 160 169 170 168 170 162 142 122 114 102 95 89 77 77 85 90 99 99 101 96 96 83 78 95 97 58 34 87 83 359 353 7 23 30 47 21 11
127 120 115 120 131 139 151 158 159 154 144 129 116 111 103 97 88 83 74 63 73 76 82 87 90 84 87 86 74 84 111 115 47 46 120 141 231 312 339 16 31 14 13
87 100 104 104 106 116 122 127 123 111 114 127 136 138 135 129 111 99 85 70 66 71 74 78 82 81 79 79 68 60 78 105 94 48 39 67 115 118 323 336 3 11 20
76 79 79 79 73 72 82 91 98 102 108 113 126 126 121 115 108 99 90 78 67 68 74 76 77 76 74 74 71 66 65 69 83 78 61 53 47 55 105 319 334 345 346
66 64 62 63 61 61 65 78 88 85 85 95 103 115 120 119 114 108 101 86 76 71 70 75 74 74 73 72 73 73 71 71 73 70 66 74 70 38 72 257 304 317 313
59 60 59 61 63 65 68 74 80 78 79 84 87 94 102 104 105 106 102 96 85 78 69 75 75 72 71 70 69 70 66 63 67 66 62 63 64 64 89 89 322 314 307
59 59 57 59 62 65 67 73 78 78 76 79 80 82 85 91 93 94 96 93 89 84 80 75 73 70 68 66 62 61 59 58 57 55 53 52 40 50 68 97 77 342 324
63 64 62 62 63 65 66 71 77 77 77 79 81 80 80 85 91 90 87 85 85 87 78 74 70 64 61 59 58 54 47 49 48 48 48 44 24 31 44 74 122 138 305
68 66 65 67 67 68 71 71 73 75 75 76 80 83 80 82 85 87 85 82 79 78 77 73 70 64 59 55 54 48 43 50 39 39 39 27 7 8 10 20 40 143 180
80 75 73 73 74 72 71 73 74 77 77 77 81 82 81 81 82 82 80 78 75 73 75 75 72 65 57 51 53 49 42 40 27 19 21 6 356 355 344 346 347 328 193
84 81 80 79 78 76 75 76 77 79 79 82 82 82 80 79 78 76 74 73 71 67 69 69 68 67 62 56 53 44 36 30 19 5 3 345 341 336 320 315 309 294 272
92 86 83 82 83 83 82 81 80 81 80 81 81 80 78 76 76 74 71 69 69 67 68 72 74 70 63 55 47 41 29 15 360 347 340 324 327 316 303 298 294 289 296
96 93 88 83 83 82 83 85 83 82 83 81 80 79 76 76 76 74 72 71 72 72 74 80 81 79 69 56 38 27 15 356 342 333 324 316 307 291 289 290 290 288 297
99 95 93 91 88 85 83 84 83 81 83 83 80 79 79 78 75 72 69 66 67 72 78 86 87 82 70 52 37 12 1 345 334 328 323 318 326 339 328 315 296 293 287
103 100 97 93 91 90 89 86 85 83 85 85 83 81 78 76 73 71 69 67 64 63 70 80 93 85 72 42 26 13 349 336 330 323 321 318 323 330 338 335 327 316 300
108 104 101 97 94 91 93 92 91 88 87 88 88 83 81 80 76 78 73 68 63 64 69 82 107 120 138 16 8 3 359 338 328 321 316 321 326 326 312 316 319 313 304
108 103 99 94 91 91 93 94 90 88 89 89 88 87 90 85 78 73 67 58 54 61 71 96 151 184 248 292 345 353 356 338 329 323 316 312 310 304 302 305 307 300 294
104 102 101 100 94 90 92 89 85 83 85 86 86 90 93 90 83 73 61 50 56 35 356 232 191 230 269 277 310 346 339 328 323 319 321 318 309 303 309 306 302 303 301
98 98 94 91 88 84 89 91 91 91 94 101 102 96 94 100 101 96 67 17 42 336 328 337 317 274 272 280 301 334 332 323 320 316 313 314 309 309 312 300 289 295 298
103 100 95 90 90 90 91 94 96 105 116 109 100 92 93 114 128 98 25 20 20 9 359 356 346 344 328 325 330 339 332 312 311 313 312 309 312 315 313 308 278 274 288
107 104 98 94 91 96 100 100 109 126 107 92 86 86 98 112 105 75 35 36 41 32 17 12 1 356 4 15 350 346 340 335 309 303 304 305 312 315 316 315 305 309 312
111 108 108 99 90 100 111 114 134 121 101 88 75 336 33 47 83 103 84 61 56 52 27 19 2 343 344 342 345 340 334 333 324 301 309 313 316 320 320 320 325 330 330
114 113 109 106 103 110 117 135 150 135 120 122 273 265 320 358 63 90 111 107 88 67 36 12 351 333 324 325 333 331 328 329 328 321 317 317 319 328 325 327 333 333 320
118 119 121 127 134 131 133 161 157 129 107 16 308 281 229 177 140 105 122 142 173 171 154 236 292 321 320 308 317 319 317 315 310 316 315 327 336 343 341 338 337 335 339
119 123 131 138 148 146 159 198 185 157 147 307 318 301 207 177 146 129 65 31 183 181 166 203 253 280 284 305 319 325 325 325 327 330 327 329 332 333 333 333 331 330 333